| time (UTC) | temp F | wind direction | speed MPH | gust MPH | rain 1hr in | rain 24hr in | rain mn in | humidity % | barometer mb |
| 20260508044504 | 54 | 44 | 0.0 | 2.0 | 0.00 | 0.14 | 0.00 | 66 | 1008.9 |
| 20260508043503 | 54 | 54 | 0.0 | 1.0 | 0.00 | 0.14 | 0.00 | 65 | 1008.5 |
| 20260508042503 | 54 | 35 | 1.0 | 2.0 | 0.00 | 0.14 | 0.00 | 63 | 1008.5 |
| 20260508041502 | 54 | 76 | 1.0 | 2.0 | 0.00 | 0.14 | 0.00 | 61 | 1008.5 |
| 20260508040501 | 54 | 309 | 2.0 | 3.0 | 0.00 | 0.14 | 0.00 | 60 | 1008.9 |
| 20260508035500 | 54 | 92 | 0.0 | 0.0 | 0.00 | 0.14 | 0.14 | 60 | 1008.5 |
| 20260508034358 | 54 | 236 | 0.0 | 2.0 | 0.00 | 0.14 | 0.14 | 61 | 1008.5 |
| 20260508033357 | 54 | 313 | 0.0 | 1.0 | 0.00 | 0.15 | 0.14 | 60 | 1008.5 |
| 20260508032356 | 54 | 313 | 0.0 | 0.0 | 0.00 | 0.15 | 0.14 | 58 | 1008.5 |
| 20260508031325 | 53 | 313 | 0.0 | 0.0 | 0.00 | 0.15 | 0.14 | 59 | 1008.5 |
| 20260508030324 | 53 | 313 | 0.0 | 0.0 | 0.00 | 0.15 | 0.14 | 56 | 1008.5 |
| 20260508025323 | 53 | 313 | 0.0 | 0.0 | 0.00 | 0.15 | 0.14 | 60 | 1008.5 |
| 20260508024323 | 54 | 313 | 0.0 | 0.0 | 0.00 | 0.15 | 0.14 | 60 | 1008.5 |
| 20260508023322 | 54 | 313 | 0.0 | 1.0 | 0.00 | 0.15 | 0.14 | 58 | 1008.5 |
| 20260508022250 | 55 | 313 | 0.0 | 0.0 | 0.00 | 0.16 | 0.14 | 55 | 1008.1 |
| 20260508021218 | 55 | 313 | 0.0 | 0.0 | 0.00 | 0.21 | 0.14 | 54 | 1008.5 |
| 20260508020218 | 55 | 313 | 0.0 | 0.0 | 0.00 | 0.21 | 0.14 | 52 | 1008.1 |
| 20260508015217 | 55 | 313 | 0.0 | 0.0 | 0.00 | 0.21 | 0.14 | 51 | 1008.1 |
| 20260508014216 | 55 | 313 | 0.0 | 0.0 | 0.00 | 0.22 | 0.14 | 54 | 1008.1 |
| 20260508013216 | 55 | 313 | 0.0 | 0.0 | 0.00 | 0.22 | 0.14 | 55 | 1008.0 |
| 20260508012215 | 55 | 313 | 0.0 | 0.0 | 0.00 | 0.22 | 0.14 | 54 | 1008.0 |
| 20260508011215 | 55 | 313 | 0.0 | 0.0 | 0.00 | 0.22 | 0.14 | 56 | 1007.7 |
| 20260508010214 | 56 | 313 | 0.0 | 0.0 | 0.00 | 0.22 | 0.14 | 54 | 1007.7 |
| 20260508005213 | 56 | 313 | 0.0 | 0.0 | 0.00 | 0.22 | 0.14 | 53 | 1007.7 |
| 20260508004213 | 57 | 313 | 0.0 | 0.0 | 0.00 | 0.22 | 0.14 | 52 | 1007.7 |
| 20260508003212 | 58 | 313 | 0.0 | 0.0 | 0.00 | 0.22 | 0.14 | 51 | 1007.7 |
| 20260508002211 | 59 | 313 | 0.0 | 0.0 | 0.00 | 0.22 | 0.14 | 51 | 1007.4 |
| 20260508001211 | 60 | 313 | 0.0 | 0.0 | 0.00 | 0.22 | 0.14 | 44 | 1007.4 |
| 20260508000139 | 60 | 313 | 0.0 | 1.0 | 0.00 | 0.22 | 0.14 | 42 | 1007.5 |
| 20260507235139 | 61 | 313 | 1.0 | 1.0 | 0.00 | 0.22 | 0.14 | 41 | 1007.5 |
| 20260507234138 | 62 | 313 | 0.0 | 3.0 | 0.00 | 0.22 | 0.14 | 40 | 1007.5 |
| 20260507233137 | 62 | 304 | 1.0 | 3.0 | 0.00 | 0.22 | 0.14 | 40 | 1007.5 |
| 20260507232137 | 63 | 281 | 3.0 | 4.0 | 0.00 | 0.22 | 0.14 | 38 | 1007.5 |
| 20260507231136 | 64 | 306 | 1.0 | 3.0 | 0.00 | 0.22 | 0.14 | 39 | 1007.5 |
| 20260507230135 | 64 | 315 | 1.0 | 4.0 | 0.00 | 0.22 | 0.14 | 37 | 1007.2 |
| 20260507225135 | 65 | 15 | 0.0 | 3.0 | 0.00 | 0.22 | 0.14 | 37 | 1007.2 |
| 20260507224134 | 65 | 8 | 1.0 | 6.0 | 0.00 | 0.22 | 0.14 | 35 | 1007.2 |
| 20260507223133 | 66 | 289 | 2.0 | 4.0 | 0.00 | 0.22 | 0.14 | 36 | 1007.2 |
| 20260507222132 | 66 | 341 | 1.0 | 2.0 | 0.00 | 0.22 | 0.14 | 36 | 1007.2 |
| 20260507221101 | 66 | 276 | 2.0 | 4.0 | 0.00 | 0.22 | 0.14 | 35 | 1007.2 |
| 20260507220100 | 66 | 293 | 2.0 | 6.0 | 0.00 | 0.22 | 0.14 | 35 | 1007.2 |
| 20260507215059 | 66 | 279 | 3.0 | 6.0 | 0.00 | 0.22 | 0.14 | 35 | 1007.2 |
| 20260507213957 | 66 | 289 | 2.0 | 6.0 | 0.00 | 0.22 | 0.14 | 35 | 1007.2 |
| 20260507212956 | 67 | 325 | 2.0 | 4.0 | 0.00 | 0.22 | 0.14 | 37 | 1007.2 |
| 20260507211853 | 66 | 335 | 2.0 | 5.0 | 0.00 | 0.22 | 0.14 | 35 | 1007.2 |
| 20260507210853 | 67 | 288 | 3.0 | 5.0 | 0.00 | 0.22 | 0.14 | 34 | 1007.2 |
| 20260507205852 | 67 | 29 | 1.0 | 4.0 | 0.00 | 0.22 | 0.14 | 35 | 1007.2 |
| 20260507204852 | 67 | 341 | 2.0 | 6.0 | 0.00 | 0.22 | 0.14 | 36 | 1007.2 |
| 20260507203851 | 67 | 327 | 1.0 | 8.0 | 0.00 | 0.22 | 0.14 | 37 | 1007.2 |
| 20260507202850 | 67 | 28 | 2.0 | 8.0 | 0.00 | 0.22 | 0.14 | 34 | 1007.2 |
| 20260507201849 | 67 | 305 | 3.0 | 6.0 | 0.00 | 0.22 | 0.14 | 35 | 1007.2 |
| 20260507200849 | 67 | 290 | 2.0 | 7.0 | 0.00 | 0.22 | 0.14 | 35 | 1007.2 |
| 20260507195849 | 67 | 317 | 2.0 | 4.0 | 0.00 | 0.22 | 0.14 | 35 | 1007.5 |
| 20260507194848 | 67 | 286 | 3.0 | 5.0 | 0.00 | 0.22 | 0.14 | 36 | 1007.5 |
| 20260507193848 | 67 | 289 | 3.0 | 6.0 | 0.00 | 0.22 | 0.14 | 36 | 1007.5 |
| 20260507192847 | 67 | 270 | 3.0 | 4.0 | 0.00 | 0.22 | 0.14 | 38 | 1007.5 |
| 20260507191816 | 66 | 20 | 2.0 | 6.0 | 0.00 | 0.22 | 0.14 | 37 | 1007.9 |
| 20260507190815 | 66 | 281 | 2.0 | 6.0 | 0.00 | 0.22 | 0.14 | 39 | 1007.9 |
| 20260507185814 | 66 | 16 | 1.0 | 5.0 | 0.00 | 0.22 | 0.14 | 38 | 1008.2 |
| 20260507184742 | 65 | 66 | 2.0 | 6.0 | 0.00 | 0.22 | 0.14 | 36 | 1008.2 |
| 20260507183711 | 65 | 71 | 0.0 | 7.0 | 0.00 | 0.22 | 0.14 | 36 | 1008.2 |
| 20260507182710 | 64 | 359 | 3.0 | 7.0 | 0.00 | 0.22 | 0.14 | 37 | 1008.2 |
| 20260507181710 | 65 | 332 | 3.0 | 6.0 | 0.00 | 0.22 | 0.14 | 36 | 1008.2 |
| 20260507180710 | 64 | 334 | 2.0 | 4.0 | 0.00 | 0.22 | 0.14 | 41 | 1008.5 |
| 20260507175709 | 65 | 334 | 4.0 | 7.0 | 0.00 | 0.22 | 0.14 | 42 | 1008.5 |
| 20260507174708 | 64 | 312 | 1.0 | 4.0 | 0.00 | 0.22 | 0.14 | 41 | 1008.5 |
| 20260507173707 | 64 | 334 | 2.0 | 5.0 | 0.00 | 0.22 | 0.14 | 39 | 1008.9 |
| 20260507172706 | 64 | 21 | 3.0 | 7.0 | 0.00 | 0.22 | 0.14 | 41 | 1009.2 |
| 20260507171706 | 62 | 351 | 3.0 | 6.0 | 0.00 | 0.22 | 0.14 | 43 | 1009.2 |
| 20260507170705 | 63 | 345 | 4.0 | 6.0 | 0.00 | 0.22 | 0.14 | 40 | 1009.5 |
| 20260507165704 | 62 | 325 | 0.0 | 4.0 | 0.00 | 0.22 | 0.14 | 45 | 1009.5 |
| 20260507164704 | 62 | 65 | 0.0 | 3.0 | 0.00 | 0.22 | 0.14 | 44 | 1009.6 |
| 20260507163703 | 62 | 343 | 3.0 | 6.0 | 0.00 | 0.22 | 0.14 | 42 | 1009.9 |
| 20260507162631 | 61 | 287 | 4.0 | 7.0 | 0.00 | 0.23 | 0.14 | 45 | 1009.9 |
| 20260507161631 | 61 | 323 | 3.0 | 8.0 | 0.00 | 0.23 | 0.14 | 46 | 1010.2 |
| 20260507160630 | 60 | 1 | 2.0 | 6.0 | 0.00 | 0.25 | 0.14 | 47 | 1010.2 |
| 20260507155629 | 59 | 309 | 5.0 | 9.0 | 0.00 | 0.26 | 0.14 | 50 | 1010.2 |
| 20260507154558 | 59 | 32 | 1.0 | 6.0 | 0.00 | 0.27 | 0.14 | 51 | 1010.2 |
| 20260507153526 | 59 | 289 | 5.0 | 5.0 | 0.00 | 0.28 | 0.14 | 55 | 1010.2 |
| 20260507152454 | 58 | 317 | 1.0 | 1.0 | 0.00 | 0.29 | 0.14 | 55 | 1010.6 |
| 20260507151453 | 59 | 312 | 2.0 | 3.0 | 0.00 | 0.30 | 0.14 | 56 | 1010.9 |
| 20260507150453 | 58 | 1 | 2.0 | 6.0 | 0.00 | 0.30 | 0.14 | 55 | 1011.0 |
| 20260507145452 | 57 | 287 | 3.0 | 8.0 | 0.00 | 0.30 | 0.14 | 57 | 1011.0 |
| 20260507144452 | 56 | 317 | 2.0 | 6.0 | 0.00 | 0.30 | 0.14 | 62 | 1011.0 |
| 20260507143420 | 56 | 285 | 3.0 | 5.0 | 0.00 | 0.30 | 0.14 | 64 | 1011.3 |
| 20260507142349 | 56 | 309 | 2.0 | 5.0 | 0.00 | 0.30 | 0.14 | 68 | 1011.3 |
| 20260507141348 | 56 | 297 | 2.0 | 6.0 | 0.00 | 0.30 | 0.14 | 69 | 1011.3 |
| 20260507140316 | 55 | 322 | 1.0 | 8.0 | 0.00 | 0.30 | 0.14 | 73 | 1011.3 |
| 20260507135244 | 52 | 307 | 2.0 | 5.0 | 0.00 | 0.30 | 0.14 | 78 | 1011.2 |
| 20260507134244 | 50 | 311 | 2.0 | 5.0 | 0.00 | 0.30 | 0.14 | 80 | 1011.5 |
| 20260507133243 | 48 | 297 | 2.0 | 6.0 | 0.00 | 0.30 | 0.14 | 82 | 1011.5 |
| 20260507132243 | 48 | 327 | 2.0 | 5.0 | 0.00 | 0.30 | 0.14 | 86 | 1011.2 |
| 20260507131242 | 49 | 348 | 3.0 | 5.0 | 0.00 | 0.30 | 0.14 | 90 | 1011.2 |
| 20260507130241 | 50 | 16 | 3.0 | 6.0 | 0.00 | 0.30 | 0.14 | 92 | 1011.2 |
| 20260507125241 | 50 | 344 | 1.0 | 6.0 | 0.00 | 0.30 | 0.14 | 92 | 1011.2 |
| 20260507124240 | 49 | 340 | 1.0 | 4.0 | 0.00 | 0.30 | 0.14 | 93 | 1011.2 |
| 20260507123239 | 50 | 12 | 2.0 | 3.0 | 0.00 | 0.30 | 0.14 | 93 | 1011.5 |
| 20260507122239 | 50 | 277 | 2.0 | 6.0 | 0.00 | 0.30 | 0.14 | 94 | 1011.2 |
| 20260507121238 | 50 | 315 | 1.0 | 4.0 | 0.00 | 0.30 | 0.14 | 94 | 1011.2 |
| 20260507120238 | 51 | 274 | 2.0 | 2.0 | 0.00 | 0.30 | 0.14 | 94 | 1011.2 |
| 20260507115237 | 51 | 31 | 0.0 | 0.0 | 0.00 | 0.30 | 0.14 | 94 | 1011.2 |
| 20260507114237 | 51 | 53 | 0.0 | 0.0 | 0.00 | 0.30 | 0.14 | 94 | 1011.2 |
| 20260507113236 | 51 | 53 | 0.0 | 0.0 | 0.00 | 0.30 | 0.14 | 94 | 1011.2 |
| 20260507112235 | 51 | 117 | 0.0 | 0.0 | 0.00 | 0.30 | 0.14 | 94 | 1010.9 |
| 20260507111133 | 50 | 123 | 0.0 | 0.0 | 0.00 | 0.30 | 0.14 | 94 | 1010.9 |
| 20260507105101 | 50 | 53 | 0.0 | 0.0 | 0.00 | 0.30 | 0.14 | 93 | 1010.6 |
| 20260507104100 | 50 | 74 | 0.0 | 0.0 | 0.00 | 0.30 | 0.14 | 93 | 1010.2 |
| 20260507103028 | 50 | 62 | 0.0 | 0.0 | 0.00 | 0.30 | 0.14 | 93 | 1010.2 |
| 20260507102027 | 49 | 309 | 0.0 | 0.0 | 0.00 | 0.30 | 0.14 | 93 | 1010.2 |
| 20260507101027 | 49 | 309 | 0.0 | 0.0 | 0.00 | 0.30 | 0.14 | 93 | 1009.9 |
| 20260507095955 | 49 | 309 | 0.0 | 0.0 | 0.00 | 0.30 | 0.14 | 93 | 1009.6 |
| 20260507094954 | 49 | 309 | 0.0 | 0.0 | 0.00 | 0.30 | 0.14 | 93 | 1009.9 |
| 20260507093954 | 49 | 309 | 0.0 | 0.0 | 0.01 | 0.30 | 0.14 | 93 | 1009.5 |
| 20260507092953 | 49 | 309 | 0.0 | 0.0 | 0.01 | 0.30 | 0.14 | 93 | 1009.5 |
| 20260507091952 | 49 | 309 | 0.0 | 0.0 | 0.01 | 0.30 | 0.14 | 93 | 1009.5 |
| 20260507090952 | 49 | 309 | 0.0 | 0.0 | 0.01 | 0.30 | 0.14 | 92 | 1009.5 |
| 20260507085920 | 48 | 309 | 0.0 | 1.0 | 0.01 | 0.30 | 0.14 | 92 | 1009.2 |
| 20260507084920 | 48 | 306 | 0.0 | 2.0 | 0.02 | 0.30 | 0.14 | 92 | 1009.5 |
| 20260507083919 | 48 | 303 | 1.0 | 1.0 | 0.02 | 0.29 | 0.13 | 92 | 1009.2 |
| 20260507082918 | 48 | 301 | 1.0 | 3.0 | 0.02 | 0.29 | 0.13 | 92 | 1009.5 |
| 20260507081918 | 48 | 351 | 2.0 | 5.0 | 0.02 | 0.29 | 0.13 | 95 | 1009.5 |
| 20260507080846 | 48 | 336 | 2.0 | 4.0 | 0.04 | 0.29 | 0.13 | 92 | 1009.5 |
| 20260507075846 | 48 | 5 | 2.0 | 2.0 | 0.04 | 0.29 | 0.13 | 92 | 1009.5 |
| 20260507074845 | 49 | 355 | 1.0 | 3.0 | 0.03 | 0.28 | 0.12 | 91 | 1009.5 |
| 20260507073844 | 49 | 293 | 2.0 | 4.0 | 0.03 | 0.27 | 0.11 | 92 | 1009.8 |
| 20260507072844 | 49 | 345 | 2.0 | 4.0 | 0.04 | 0.27 | 0.11 | 91 | 1009.8 |
| 20260507071843 | 49 | 286 | 1.0 | 4.0 | 0.05 | 0.27 | 0.11 | 91 | 1010.2 |
| 20260507070811 | 50 | 287 | 3.0 | 5.0 | 0.05 | 0.25 | 0.09 | 91 | 1009.8 |
| 20260507065740 | 50 | 346 | 2.0 | 4.0 | 0.06 | 0.25 | 0.09 | 91 | 1009.8 |
| 20260507064739 | 50 | 341 | 2.0 | 3.0 | 0.06 | 0.25 | 0.09 | 91 | 1009.8 |
| 20260507063739 | 49 | 298 | 1.0 | 2.0 | 0.06 | 0.24 | 0.08 | 90 | 1009.5 |
| 20260507062707 | 49 | 299 | 1.0 | 3.0 | 0.05 | 0.23 | 0.07 | 90 | 1009.8 |
| 20260507061706 | 50 | 296 | 2.0 | 4.0 | 0.06 | 0.22 | 0.06 | 90 | 1009.8 |
| 20260507060706 | 50 | 284 | 3.0 | 4.0 | 0.04 | 0.20 | 0.04 | 89 | 1009.8 |
| 20260507055705 | 50 | 287 | 1.0 | 5.0 | 0.03 | 0.19 | 0.03 | 89 | 1009.9 |
| 20260507054704 | 51 | 358 | 2.0 | 4.0 | 0.03 | 0.19 | 0.03 | 89 | 1009.2 |
| 20260507053704 | 51 | 331 | 1.0 | 3.0 | 0.02 | 0.18 | 0.02 | 89 | 1009.5 |
| 20260507052703 | 52 | 339 | 1.0 | 6.0 | 0.01 | 0.17 | 0.01 | 89 | 1009.2 |
| 20260507051703 | 52 | 283 | 3.0 | 5.0 | 0.00 | 0.16 | 0.00 | 89 | 1010.2 |
| 20260507050702 | 53 | 286 | 2.0 | 4.0 | 0.00 | 0.16 | 0.00 | 89 | 1009.2 |
| 20260507045701 | 53 | 284 | 1.0 | 5.0 | 0.00 | 0.16 | 0.00 | 90 | 1008.6 |